Weather reports worldwide

Advertisment
Straubing, Germany (10788): temperature & dewpoint: 08.12.2019 02:00:00 - 14.12.2019 02:00:00 (CET)Straubing, Germany (10788): temperature 5cm & temperature -5cm: 08.12.2019 02:00:00 - 14.12.2019 02:00:00 (CET)Straubing, Germany (10788): temperature -20cm & temperature -100cm: 08.12.2019 02:00:00 - 14.12.2019 02:00:00 (CET)Straubing, Germany (10788): wind speed & gusts: 08.12.2019 02:00:00 - 14.12.2019 02:00:00 (CET)Straubing, Germany (10788): wind direction: 08.12.2019 02:00:00 - 14.12.2019 02:00:00 (CET)Straubing, Germany (10788): reduced air pressure: 08.12.2019 02:00:00 - 14.12.2019 02:00:00 (CET)Straubing, Germany (10788): visibility: 08.12.2019 02:00:00 - 14.12.2019 02:00:00 (CET)Straubing, Germany (10788): sunshine duration: 08.12.2019 02:00:00 - 14.12.2019 02:00:00 (CET)Straubing, Germany (10788): precipitation: 08.12.2019 02:00:00 - 14.12.2019 02:00:00 (CET)
Date & Time tt [°C] td [°C] tt 5cm [°C] tt -5cm [°C] tt -20cm [°C] tt -100cm [°C] ff [km/h] ff [kn] fx [km/h] fx [kn] dd ppp [hPa] vv [km] sd [min] rr [mm]
14.12.2019 02:00:00 4,7 1,3 4,2 2,5 2,7 7,4 26 14 45 24 WSW 994,3 51 0 0,0
14.12.2019 01:00:00 4,6 1,8 4,0 2,5 2,6 7,4 27 15 48 26 WSW 993,5 55 0 0,0
14.12.2019 00:00:00 4,8 1,7 4,2 2,4 2,6 7,4 27 15 46 25 WSW 992,8 69 0 0,0
13.12.2019 23:00:00 4,7 1,9 3,5 2,2 2,5 7,4 26 14 46 25 WSW 991,9 65 0 0,0
13.12.2019 22:00:00 4,6 1,6 3,5 1,9 2,5 7,4 27 14 44 24 SW 990,9 18 0 0,0
13.12.2019 21:00:00 4,8 1,1 3,7 1,6 2,4 7,4 27 15 41 22 WSW 989,9 75 0 0,0
13.12.2019 20:00:00 4,3 1,2 2,7 1,6 2,4 7,4 21 12 40 22 SW 989,4 70 0 0,0
13.12.2019 19:00:00 3,9 1,1 2,5 1,3 2,4 7,5 23 12 38 20 SW 988,9 59 0 0,0
13.12.2019 18:00:00 3,8 1,5 2,3 1,2 2,5 7,5 17 9 30 16 SW 988,1 68 0 0,0
13.12.2019 17:00:00 0,9 0,8 -0,3 1,1 2,5 7,5 6 3 16 8 SSE 987,5 16 0 0,0
13.12.2019 16:00:00 0,7 0,7 0,5 1,1 2,5 7,5 13 7 19 10 ESE 986,7 6 32 0,0
13.12.2019 15:00:00 0,6 0,6 0,4 1,2 2,5 7,5 11 6 17 9 ESE 985,9 7 2 0,1
13.12.2019 14:00:00 0,2 0,2 0,0 1,3 2,5 7,5 14 8 20 11 SE 985,5 1,7 0 1,2
13.12.2019 13:00:00 0,3 -0,1 0,2 1,6 2,5 7,5 14 7 19 10 E 984,7 6 0 0,2
13.12.2019 12:00:00 0,7 -0,6 0,9 1,8 2,5 7,5 17 9 29 16 SSE 984,2 13 0 0,0
13.12.2019 11:00:00 0,8 -0,3 1,2 1,5 2,5 7,5 25 13 37 20 SE 983,7 12 0 0,0
13.12.2019 10:00:00 0,1 -0,6 0,1 1,2 2,5 7,5 28 15 36 20 ESE 984,2 10 0 0,0
13.12.2019 09:00:00 -0,1 -0,7 -0,1 1,0 2,5 7,5 22 12 30 16 ESE 985,4 9 0 0,0
13.12.2019 08:00:00 0,0 -0,7 -0,2 1,1 2,5 7,5 19 10 29 15 ESE 986,8 7 0 0,0
13.12.2019 07:00:00 0,2 -0,6 -0,1 1,2 2,5 7,5 18 10 27 15 ESE 988,2 8 0 0,0
13.12.2019 06:00:00 0,2 -0,7 -0,1 1,2 2,5 7,5 19 10 35 19 ESE 989,2 9 0 0,0
13.12.2019 05:00:00 0,7 -0,1 0,3 1,3 2,6 7,5 17 9 30 16 SE 990,4 12 0 0,0
13.12.2019 04:00:00 0,6 -0,1 0,2 1,4 2,6 7,5 19 11 34 18 SE 992,0 9 0 0,0
13.12.2019 03:00:00 1,0 0,4 0,7 1,5 2,6 7,6 19 10 32 17 ESE 993,6 10 0 0,0
13.12.2019 02:00:00 0,8 0,7 0,5 1,5 2,6 7,6 18 10 27 15 ESE 995,0 3,5 0 0,0
13.12.2019 01:00:00 1,1 1,1 0,9 1,5 2,6 7,6 15 8 24 13 ESE 996,9 3,8 0 0,0
13.12.2019 00:00:00 1,3 1,3 1,0 1,4 2,6 7,6 12 7 19 11 ESE 998,2 3,7 0 0,0
12.12.2019 23:00:00 1,3 1,3 1,0 1,4 2,6 7,6 10 5 17 9 SE 999,8 4,0 0 0,0
12.12.2019 22:00:00 1,1 1,1 0,7 1,3 2,6 7,6 14 7 18 10 ESE 1000,9 4,1 0 0,0
12.12.2019 21:00:00 1,0 1,0 -0,5 1,6 2,6 7,6 5 3 10 5 SE 1002,3 4,6 0 0,0
12.12.2019 20:00:00 1,4 1,4 1,0 1,8 2,5 7,6 7 4 12 6 SE 1003,0 3,8 0 0,0
12.12.2019 19:00:00 1,4 1,4 1,2 1,7 2,5 7,6 8 5 15 8 ESE 1004,0 2,0 0 0,0
12.12.2019 18:00:00 1,2 1,2 1,0 1,7 2,5 7,6 11 6 18 10 ESE 1004,6 1,7 0 0,0
12.12.2019 17:00:00 1,3 1,3 1,0 1,7 2,4 7,6 13 7 21 11 ESE 1005,1 3,5 0 0,3
12.12.2019 16:00:00 1,4 1,3 1,4 1,8 2,4 7,6 13 7 19 11 E 1005,5 3,5 0 0,0
12.12.2019 15:00:00 1,7 1,7 1,7 1,8 2,3 7,6 13 7 17 9 ESE 1005,8 3,5 0 0,0
12.12.2019 14:00:00 1,8 1,7 2,3 1,4 2,3 7,6 13 7 16 9 E 1006,5 4,2 0 0,0
12.12.2019 13:00:00 1,5 1,3 2,1 0,9 2,3 7,6 8 4 13 7 E 1007,4 4,6 0 0,0
12.12.2019 12:00:00 1,1 1,0 1,6 0,8 2,3 7,6 11 6 14 8 E 1008,1 4,1 0 0,0
12.12.2019 11:00:00 0,9 0,8 1,7 0,8 2,3 7,6 9 5 11 6 E 1008,7 4,2 0 0,0
12.12.2019 10:00:00 0,2 0,2 0,3 0,8 2,3 7,6 8 4 10 5 E 1009,0 4,3 0 0,0
12.12.2019 09:00:00 -0,1 -0,1 -0,1 0,8 2,3 7,6 6 3 11 6 E 1008,9 3,3 0 0,0
12.12.2019 08:00:00 -0,3 -0,3 -0,3 0,8 2,3 7,7 4 2 8 5 E 1008,8 3,5 0 0,0
12.12.2019 07:00:00 -0,3 -0,3 -0,4 0,8 2,3 7,7 6 3 12 7 E 1008,8 3,3 0 0,0
12.12.2019 06:00:00 -0,4 -0,5 -0,5 0,8 2,3 7,7 10 5 16 9 E 1008,5 5 0 0,2
12.12.2019 05:00:00 -0,4 -0,6 -0,5 0,8 2,4 7,7 14 7 18 10 ESE 1008,5 5 0 0,1
12.12.2019 04:00:00 -0,6 -0,7 -0,6 0,8 2,4 7,7 12 7 17 9 ESE 1008,5 6 0 0,0
12.12.2019 03:00:00 -0,5 -0,9 -0,6 0,8 2,4 7,7 9 5 11 6 E 1009,2 3,3 0 0,0
12.12.2019 02:00:00 -0,1 -1,6 -0,3 0,8 2,4 7,7 8 4 11 6 E 1009,5 21 0 0,0
12.12.2019 01:00:00 -0,1 -2,1 -0,3 0,8 2,4 7,7 9 5 16 9 ESE 1009,8 29 0 0,0
12.12.2019 00:00:00 0,0 -2,2 -0,2 0,8 2,4 7,7 9 5 16 8 SE 1010,3 32 0 0,0
11.12.2019 23:00:00 -0,1 -2,4 -0,3 0,7 2,4 7,7 8 5 11 6 ESE 1010,9 35 0 0,0
11.12.2019 22:00:00 -0,9 -2,0 -1,3 0,7 2,4 7,7 4 2 8 4 SE 1011,2 27 0 0,0
11.12.2019 21:00:00 -1,0 -2,2 -1,9 0,7 2,4 7,7 5 3 8 5 E 1011,4 25 0 0,0
11.12.2019 20:00:00 -0,2 -2,4 -1,6 0,7 2,5 7,7 2 1 17 9 W 1011,2 34 0 0,0
11.12.2019 19:00:00 -0,9 -2,2 -2,1 0,6 2,5 7,7 7 4 10 5 E 1011,3 26 0 0,0
11.12.2019 18:00:00 -0,2 -2,5 -1,6 0,6 2,5 7,7 5 3 11 6 SSE 1011,6 32 0 0,0
11.12.2019 17:00:00 -1,8 -3,2 -3,5 0,6 2,5 7,7 8 4 15 8 SSE 1012,5 29 0 0,0
11.12.2019 16:00:00 0,5 -2,4 -0,6 0,6 2,6 7,7 11 6 16 9 SE 1012,6 31 0 0,0
11.12.2019 15:00:00 1,1 -1,5 0,5 0,5 2,6 7,7 9 5 22 12 ESE 1013,1 25 32 0,0
11.12.2019 14:00:00 1,2 -1,6 1,5 0,5 2,7 7,7 15 8 23 13 ESE 1014,1 20 59 0,0
11.12.2019 13:00:00 1,1 -1,4 1,6 0,5 2,7 7,7 18 10 24 13 ESE 1015,1 17 60 0,0
11.12.2019 12:00:00 0,3 -1,3 0,5 0,5 2,8 7,7 16 9 23 12 ESE 1016,7 12 60 0,0
11.12.2019 11:00:00 -0,6 -1,6 -0,5 0,5 2,8 7,7 16 9 27 14 SE 1018,2 9 25 0,0
11.12.2019 10:00:00 -1,2 -1,7 -1,1 0,5 2,9 7,7 18 10 29 16 ESE 1019,1 7 0 0,0
11.12.2019 09:00:00 -2,0 -2,1 -2,0 0,5 3,0 7,7 18 10 27 15 ESE 1019,7 4,8 0 0,0
11.12.2019 08:00:00 -2,8 -2,9 -3,1 0,6 3,1 7,7 16 9 19 11 ESE 1020,3 4,0 0 0,0
11.12.2019 07:00:00 -3,6 -3,9 -5,8 0,7 3,1 7,7 10 5 16 9 ESE 1021,2 9 0 0,0
11.12.2019 06:00:00 -3,0 -3,4 -4,3 0,8 3,2 7,7 14 7 16 9 ESE 1021,4 12 0 0,0
11.12.2019 05:00:00 -2,4 -2,8 -7,3 0,9 3,3 7,7 4 2 8 5 E 1022,2 12 0 0,0
11.12.2019 04:00:00 -2,4 -3,0 -5,8 1,0 3,4 7,7 8 4 16 8 ESE 1023,0 13 0 0,0
11.12.2019 03:00:00 -2,3 -3,1 -4,0 1,2 3,5 7,7 12 7 16 9 ESE 1024,2 17 0 0,0
11.12.2019 02:00:00 -2,0 -2,4 -3,6 1,3 3,6 7,7 14 8 17 9 SE 1024,9 14 0 0,0
11.12.2019 01:00:00 -2,1 -2,2 -4,0 1,4 3,7 7,7 13 7 17 9 ESE 1025,7 11 0 0,0
11.12.2019 00:00:00 -2,1 -2,4 -4,8 1,5 3,8 7,7 10 5 13 7 ESE 1026,9 14 0 0,0
10.12.2019 23:00:00 -1,3 -1,4 -4,6 1,7 3,9 7,7 5 3 13 7 E 1027,0 13 0 0,0
10.12.2019 22:00:00 -1,4 -2,0 -3,1 1,8 4,0 7,7 12 6 14 7 SSW 1027,3 16 0 0,0
10.12.2019 21:00:00 -0,2 -1,1 -2,3 1,9 4,1 7,7 11 6 14 8 SSW 1027,8 19 0 0,0
10.12.2019 20:00:00 0,5 -0,8 -1,5 2,1 4,2 7,7 10 5 14 7 SW 1028,0 19 0 0,0
10.12.2019 19:00:00 0,2 -0,6 -1,7 2,6 4,3 7,7 11 6 11 6 S 1028,4 15 0 0,0
10.12.2019 18:00:00 2,3 0,9 1,0 3,2 4,3 7,7 6 4 10 5 S 1028,1 21 0 0,0
10.12.2019 17:00:00 3,1 0,8 2,2 3,6 4,3 7,7 7 4 12 7 W 1028,3 24 0 0,0
10.12.2019 16:00:00 3,6 1,0 3,0 4,0 4,3 7,7 6 4 19 10 WSW 1028,5 27 0 0,0
10.12.2019 15:00:00 3,8 0,8 3,6 4,1 4,2 7,7 13 7 23 12 W 1028,3 25 0 0,0
10.12.2019 14:00:00 3,8 0,9 3,9 4,2 4,2 7,7 11 6 21 12 W 1028,3 28 0 0,0
10.12.2019 13:00:00 3,6 1,0 3,9 4,0 4,1 7,7 13 7 23 12 W 1028,2 30 0 0,0
10.12.2019 12:00:00 3,2 0,8 3,5 3,4 4,1 7,7 13 7 25 14 W 1028,0 25 0 0,0
10.12.2019 11:00:00 2,9 0,8 2,8 3,1 4,1 7,7 15 8 24 13 W 1028,0 23 0 0,0
10.12.2019 10:00:00 2,7 0,6 2,7 2,7 4,2 7,7 13 7 24 13 W 1027,2 29 0 0,0
10.12.2019 09:00:00 1,9 0,2 1,3 2,3 4,4 7,7 13 7 22 12 W 1026,3 31 0 0,0
10.12.2019 08:00:00 1,8 0,3 0,7 2,4 4,5 7,7 11 6 17 9 W 1024,8 33 0 0,0
10.12.2019 07:00:00 2,2 0,1 0,0 2,8 4,6 7,7 10 5 24 13 NW 1023,6 39 0 0,0
10.12.2019 06:00:00 3,2 1,1 1,0 3,4 4,6 7,7 10 5 28 15 NW 1021,9 37 0 0,0
10.12.2019 05:00:00 3,9 1,8 2,6 3,8 4,6 7,7 9 5 31 17 WNW 1020,2 45 0 0,0
10.12.2019 04:00:00 4,5 2,0 3,1 4,1 4,6 7,7 16 9 39 21 NW 1018,7 55 0 0,2
10.12.2019 03:00:00 4,5 3,3 3,7 4,2 4,6 7,7 18 10 33 18 W 1017,1 6 0 0,4
10.12.2019 02:00:00 4,9 4,1 4,2 4,2 4,6 7,6 13 7 25 13 W 1015,8 26 0 0,1
10.12.2019 01:00:00 5,0 4,1 4,2 4,2 4,6 7,6 13 7 19 11 W 1014,4 24 0 0,0
10.12.2019 00:00:00 4,9 4,3 4,3 4,2 4,6 7,6 10 5 22 12 W 1013,3 41 0 0,1
09.12.2019 23:00:00 5,1 4,4 4,4 4,1 4,7 7,6 13 7 27 15 W 1011,7 12 0 0,0
09.12.2019 22:00:00 5,1 4,1 4,2 4,0 4,7 7,6 13 7 23 12 W 1010,7 67 0 0,6
09.12.2019 21:00:00 4,9 3,4 3,8 3,8 4,8 7,6 5 3 16 8 W 1009,8 59 0 0,0
09.12.2019 20:00:00 5,5 3,1 3,9 3,7 4,8 7,6 10 6 16 9 WSW 1008,4 65 0 0,0
09.12.2019 19:00:00 6,0 3,4 4,0 4,1 4,9 7,6 11 6 19 11 WSW 1007,5 75 0 0,0
09.12.2019 18:00:00 5,4 3,7 2,5 4,5 4,9 7,6 5 3 37 20 W 1006,9 57 0 0,4
09.12.2019 17:00:00 6,8 2,0 5,1 4,9 4,9 7,6 9 5 18 10 SW 1005,9 59 0 0,0
09.12.2019 16:00:00 7,5 2,5 4,4 5,7 4,8 7,6 8 5 24 13 WSW 1005,4 66 0 0,0
09.12.2019 15:00:00 9,0 2,5 8,6 6,0 4,6 7,6 12 6 23 12 WSW 1005,1 71 8 0,0
09.12.2019 14:00:00 8,9 4,2 9,6 5,9 4,5 7,6 10 5 13 7 SSW 1005,4 54 10 0,0
09.12.2019 13:00:00 7,7 4,2 7,5 5,5 4,4 7,6 10 5 15 8 SSW 1005,9 55 5 0,0
09.12.2019 12:00:00 7,9 3,8 7,8 5,0 4,3 7,6 9 5 19 10 S 1006,5 56 0 0,0
09.12.2019 11:00:00 7,3 3,5 6,9 4,3 4,3 7,6 11 6 15 8 S 1006,9 62 0 0,0
09.12.2019 10:00:00 5,6 3,3 4,7 3,8 4,3 7,7 10 5 23 13 SSW 1007,4 66 0 0,0
09.12.2019 09:00:00 5,6 3,3 4,5 3,5 4,4 7,7 14 8 19 11 SSW 1007,3 56 0 0,0
09.12.2019 08:00:00 4,0 3,0 3,1 3,3 4,4 7,7 5 3 13 7 SSE 1007,5 50 0 0,0
09.12.2019 07:00:00 5,2 2,7 2,8 3,6 4,5 7,7 9 5 13 7 SW 1007,0 55 0 0,0
09.12.2019 06:00:00 5,3 3,0 3,7 3,9 4,5 7,7 8 4 11 6 WSW 1007,1 64 0 0,0
09.12.2019 05:00:00 5,7 3,6 3,7 4,4 4,4 7,7 5 3 32 18 WSW 1007,2 64 0 0,1
09.12.2019 04:00:00 6,9 3,9 5,1 4,6 4,4 7,7 24 13 41 22 W 1007,3 30 0 0,3
09.12.2019 03:00:00 7,4 4,8 5,8 4,5 4,4 7,7 14 8 34 18 W 1007,5 53 0 0,5
09.12.2019 02:00:00 5,2 4,9 4,8 4,2 4,4 7,7 0 0 12 6 N 1007,1 6 0 0,1
09.12.2019 01:00:00 4,5 4,1 3,8 4,2 4,4 7,7 12 7 16 8 E 1006,6 26 0 0,0
09.12.2019 00:00:00 4,8 4,2 4,3 4,2 4,4 7,7 12 6 15 8 E 1006,9 34 0 0,3
08.12.2019 23:00:00 5,1 3,9 4,4 4,2 4,4 7,7 9 5 16 9 ESE 1007,4 29 0 0,1
08.12.2019 22:00:00 5,1 3,2 4,4 4,2 4,4 7,7 11 6 15 8 ESE 1007,6 48 0 0,0
08.12.2019 21:00:00 5,8 3,0 5,4 4,2 4,4 7,7 11 6 17 9 ESE 1008,4 59 0 0,0
08.12.2019 20:00:00 5,5 3,3 4,9 4,0 4,4 7,7 8 5 14 8 E 1008,9 51 0 0,0
08.12.2019 19:00:00 5,1 3,2 3,6 3,9 4,5 7,7 11 6 18 10 SE 1009,6 56 0 0,0
08.12.2019 18:00:00 5,1 3,3 2,4 4,3 4,5 7,7 7 4 15 8 E 1010,2 72 0 0,0
08.12.2019 17:00:00 4,5 3,0 2,6 5,1 4,4 7,7 14 7 16 8 S 1010,4 75 0 0,0
08.12.2019 16:00:00 6,8 4,5 5,0 6,1 4,3 7,7 9 5 13 7 SSW 1010,6 75 4 0,0
08.12.2019 15:00:00 9,0 4,8 8,3 6,6 4,1 7,7 8 4 19 10 SSW 1011,0 71 6 0,0
08.12.2019 14:00:00 9,1 4,3 9,0 6,8 3,8 7,7 12 7 26 14 WSW 1011,8 75 39 0,0
08.12.2019 13:00:00 9,2 3,9 9,9 6,2 3,6 7,7 16 9 31 17 WSW 1012,9 73 30 0,0
08.12.2019 12:00:00 8,6 4,1 9,3 5,4 3,4 7,7 16 9 23 13 SSW 1014,1 65 43 0,0
08.12.2019 11:00:00 7,4 3,8 7,8 4,3 3,3 7,7 17 9 20 11 S 1015,1 75 60 0,0
08.12.2019 10:00:00 6,0 3,5 6,6 3,1 3,3 7,8 12 7 16 9 SSW 1016,1 62 60 0,0
08.12.2019 09:00:00 4,6 2,6 3,8 2,6 3,3 7,8 13 7 18 10 SSW 1016,5 75 14 0,0
08.12.2019 08:00:00 4,9 2,7 3,0 2,8 3,3 7,8 12 7 18 10 SSW 1016,4 64 0 0,0
08.12.2019 07:00:00 4,7 3,5 3,9 3,1 3,3 7,8 9 5 13 7 SSW 1016,7 58 0 0,0
08.12.2019 06:00:00 5,0 3,4 3,4 3,3 3,2 7,8 13 7 18 10 SSW 1016,9 59 0 0,0
08.12.2019 05:00:00 4,9 3,6 4,3 3,2 3,2 7,8 12 7 19 11 SSW 1017,7 53 0 0,0
08.12.2019 04:00:00 4,7 3,5 4,2 3,2 3,2 7,8 11 6 16 9 SSW 1018,4 43 0 0,0
08.12.2019 03:00:00 5,5 3,6 4,7 3,2 3,1 7,8 8 4 18 10 SW 1019,2 60 0 0,0
08.12.2019 02:00:00 5,8 3,7 5,0 3,1 3,0 7,8 11 6 19 10 SW 1019,2 64 0 0,0

tt = temperature
td = dewpoint
tt 5cm = temperature 5cm
tt -5cm = temperature -5cm
tt -20cm = temperature -20cm
tt -100cm = temperature -100cm
ff = wind speed
fx = gusts
dd = wind direction
ppp = reduced air pressure
vv = visibility
sd = sunshine duration
rr = precipitation

Next stations